Location: Sungai Bunut
(2.6333°N, 113.7333°E)
Time: 16:25:57
(UTC+00:00)

Altair - Pass Details

Date: 12 December 2023
Orbit: 1501 x 1682 km, 47.2° (Epoch: 24 February)

Event Time Altitude Azimuth Distance (km) Brightness Sun altitude
Rises 17:32:40 0° 190° (S) 4,912 10.4 -62.8°
Reaches altitude 10° 17:37:12 10° 173° (S) 3,937 9.8 -62.1°
Enters shadow 17:39:52 15° 159° (SSE) 3,520 9.6 -61.6°
Maximum altitude 17:43:48 19° 132° (SE) 3,263 - -61.0°
Exits shadow 17:47:16 16° 108° (ESE) 3,461 9.5 -60.4°
Drops below altitude 10° 17:50:21 10° 91° (E) 3,929 9.8 -59.8°
Sets 17:54:47 0° 74° (ENE) 4,899 10.4 -59.0°
